Regional Weather Roundup
Issued by NWS Northern Indiana

Home | Current Version | Previous Version | Graphics & Text | Print | Product List | Glossary On
Versions: 1 2 3 4 5 6 7 8 9 10 11 12 13 14 15 16 17 18 19 20 21 22 23 24 25 26 27 28 29 30 31 32 33 34 35 36 37 38 39 40 41 42 43 44 45 46 47 48 49 50
000
ASUS43 KIWX 271500
RWRIWX

KIWX WEATHER ROUNDUP
NATIONAL WEATHER SERVICE NORTHERN INDIANA
1100 AM EDT TUE JUN 27 2017

NOTE: "FAIR" INDICATES FEW OR NO CLOUDS BELOW 12,000 FEET WITH NO
SIGNIFICANT WEATHER AND/OR OBSTRUCTIONS TO VISIBILITY.

* THESE STATIONS ARE NOT UNDER NWS QUALITY CONTROL. THEY ALSO MAY NOT
  REPORT WEATHER SUCH AS PRECIPITATION OR FOG.

INZ001>027-271600-
NORTHERN INDIANA

CITY           SKY/WX    TMP DP  RH WIND       PRES   REMARKS
GARY*          MOSUNNY   70  43  37 W10       30.15S
MICHIGAN CITY* SUNNY     66  45  45 W8        30.15S
KNOX*          SUNNY     64  36  34 W3        30.15F
SOUTH BEND     MOSUNNY   66  48  52 NW12      30.14F
ELKHART*       SUNNY     66  48  52 W9        30.14F
GOSHEN         SUNNY     66  46  48 W10       30.14F
MONTICELLO*    SUNNY     65  47  52 NW5       30.16F
FORT WAYNE     MOSUNNY   64  47  53 NW7       30.16S
PERU/GRISSOM   SUNNY     64  51  61 NW8       30.16R

$$
INZ028>050-271600-
CENTRAL INDIANA

CITY           SKY/WX    TMP DP  RH WIND       PRES   REMARKS
LAFAYETTE      SUNNY     66  49  54 NW6       30.17S
KOKOMO*        SUNNY     64  49  57 NW9       30.17F
MUNCIE*        MOSUNNY   66  52  60 NW9       30.16F
INDIANAPOLIS   MOSUNNY   67  48  50 NW7       30.17S

$$
MIZ043>046-050>051-056>058-064>065-071>073-077>080-271600-
SOUTHWEST LOWER MICHIGAN

CITY           SKY/WX    TMP DP  RH WIND       PRES   REMARKS
BATTLE CREEK   MOSUNNY   66  48  52 W9G17     30.12F
BENTON HARBOR  SUNNY     67  47  48 W14       30.13S
COLDWATER*     SUNNY     66  44  45 NW3       30.13S
HILLSDALE*     SUNNY     63  43  48 NW12G18   30.12S
HOLLAND        SUNNY     66  51  58 W12       30.11F
GRAND RAPIDS   PTSUNNY   66  49  54 W15G24    30.09F
KALAMAZOO      MOSUNNY   67  44  43 W14       30.13S
STURGIS*       MOSUNNY   64  48  54 NW3       30.13F
THREE RIVERS*  FAIR      66  46  47 NW8       30.13F

$$
OHZ001>008-015>018-024>025-271600-
NORTHWEST OHIO

CITY           SKY/WX    TMP DP  RH WIND       PRES   REMARKS
DEFIANCE       SUNNY     63  45  51 NW8       30.14R
FINDLAY        SUNNY     64  48  56 NW9       30.12S
TOLEDO EXPRESS SUNNY     63  44  50 NW9       30.11S
TOLEDO METCALF SUNNY     65  45  48 NW12G18   30.12S
LIMA           MOSUNNY   62  50  64 NW8       30.13F

$$
AND FOR LAKE MICHIGAN COASTAL AND OPEN LAKE BUOY OBSERVATIONS

STATION/POSITION TEMP    WIND        PRES    VSBY  WAVE
                 AIR SEA DIR/SP/G                  HT/PER
                 (F)     (DEG/KT/KT) (MB)    (MI)  (FT/S)
CALUMET HARBOR    67     280/  4/  8 1020.1F
MICHIGAN CITY     62     240/ 10/ 11   N/A
BURNS HARBOR      64     270/  6/ 10 1021.3S
SOUTH LAKE BUOY   60 61  310/ 10/ 12 1019.7          1/ 3
4 MI NW BRIDGMAN  63 69  260/ 10/ 14 1020.6F         2/ 5
MICHIGAN CITY     62 65  250/  8/ 10   N/A           2/ 5

$$
&&




USA.gov is the U.S. government's official web portal to all federal, state and local government web resources and services.